cover

 

Get it on iTunes

Allen Watts

#Trackname / Key / BPM / Publish dateArtists, Remixers / Label
1 138 bpm, 10A / B minor, 2017-11-10, Trance,  0  33
2 138 bpm, 4A / F minor, 2017-11-10, Trance,  0  33
3 138 bpm, 4B / Ab major, 2017-11-03, Trance,  0  40
4 138 bpm, 5B / Eb major, 2017-10-30, Trance,  17  1
5 138 bpm, 4B / Ab major, 2017-10-27, Trance,  0  25
6 138 bpm, 2A / Eb minor, 2017-10-20, Trance,  0  10
7 140 bpm, 6A / G minor, 2017-09-04, Trance,  2  8
8 138 bpm, 7A / D minor, 2017-08-25, Trance,  0  35
9 140 bpm, 6B / Bb major, 2017-08-21, Trance,  0  15
10 138 bpm, 9A / E minor, 2017-08-18, Trance,  2  15
11 140 bpm, 6B / Bb major, 2017-08-18, Trance,  0  15
12 138 bpm, 2A / Eb minor, 2017-08-18, Trance,  0  20
13 138 bpm, 2A / Eb minor, 2017-08-04, Trance,  1  35
14 138 bpm, 7A / D minor, 2017-07-17, Trance,  10  1
15 138 bpm, 9A / E minor, 2017-07-10, Trance,  3  2
16 138 bpm, 9A / E minor, 2017-07-10, Trance,  8  2
17 140 bpm, 6B / Bb major, 2017-07-07, Trance,  2  1
18 138 bpm, 2A / Eb minor, 2017-06-23, Trance,  2  5
19 138 bpm, 2A / Eb minor, 2017-06-23, Trance,  4  1
20 138 bpm, 2B / F# major, 2017-06-09, Trance,  0  20
21 138 bpm, 4B / Ab major, 2017-06-02, Trance,  0  40
22 138 bpm, 2A / Eb minor, 2017-05-12, Trance,  23  1
23 138 bpm, 7A / D minor, 2017-04-28, Trance,  1  25
24 138 bpm, 10B / D major, 2017-04-28, Trance,  0  15
25 140 bpm, 6A / G minor, 2017-04-28, Trance,  1  15
26 138 bpm, 2B / F# major, 2017-04-21, Trance,  1  40
27 138 bpm, 4B / Ab major, 2017-04-14, Trance,  1  20
28 138 bpm, 4B / Ab major, 2017-04-14, Trance,  0  40
29 138 bpm, 4B / Ab major, 2017-04-07, Trance,  2  25
30 138 bpm, 7A / D minor, 2017-03-17, Trance,  4  1
31 140 bpm, 6A / G minor, 2017-03-03, Trance,  22  1
32 140 bpm, 3A / Bb minor, 2017-03-03, Trance,  0  20
33 138 bpm, 10B / D major, 2017-02-14, Trance,  2  5
34 138 bpm, 4B / Ab major, 2017-01-30, Trance,  19  1
35 138 bpm, 7B / F major, 2017-01-20, Trance,  0  15
36 138 bpm, 4A / F minor, 2017-01-13, Trance,  1  20
37 140 bpm, 3A / Bb minor, 2017-01-09, Trance,  15  1
38 138 bpm, 1A / Ab minor, 2017-01-02, Trance,  0  23
39 138 bpm, 2B / F# major, 2016-12-16, House,  0  105
40 140 bpm, 4A / F minor, 2016-12-12, Trance,  1  51
41 138 bpm, 2B / F# major, 2016-12-09, Trance,  1  10
42 138 bpm, 2B / F# major, 2016-12-02, Trance,  0  39
43 138 bpm, 4A / F minor, 2016-12-02, Trance,  0  40
44 138 bpm, 1A / Ab minor, 2016-11-28, Trance,  2  2
45 138 bpm, 6A / G minor, 2016-11-28, Trance,  5  1
46 138 bpm, 7B / F major, 2016-11-21, Trance,  13  1
47 138 bpm, 2B / F# major, 2016-11-04, Trance,  0  40
48 138 bpm, 2B / F# major, 2016-11-04, Trance,  0  100
49 140 bpm, 8A / A minor, 2016-11-04, Trance,  0  100
50 138 bpm, 6A / G minor, 2016-10-28, Trance,  1  55
51 138 bpm, 4A / F minor, 2016-10-28, Trance,  0  20
52 138 bpm, 3A / Bb minor, 2016-10-07, Trance,  0  10
53 140 bpm, 4B / Ab major, 2016-10-07, Trance,  0  10
54 140 bpm, 8A / A minor, 2016-09-30, Trance,  0  15
55 138 bpm, 4A / F minor, 2016-09-30, Trance,  0  15
56 138 bpm, 4A / F minor, 2016-09-30, Trance,  0  30
57 138 bpm, 3A / Bb minor, 2016-09-30, Trance,  0  20
58 138 bpm, 9A / E minor, 2016-09-23, Trance,  1  10
59 138 bpm, 3A / Bb minor, 2016-09-16, Trance,  0  10
60 140 bpm, 8A / A minor, 2016-09-02, Trance,  7  1
61 138 bpm, 7A / D minor, 2016-09-02, Trance,  0  10
62 138 bpm, 4A / F minor, 2016-08-29, Trance,  5  2
1
63 138 bpm, 4A / F minor, 2016-08-29, Trance,  2  2
64 138 bpm, 4A / F minor, 2016-08-19, Trance,  1  39
65 138 bpm, 4A / F minor, 2016-08-19, Trance,  0  40
66 136 bpm, 4B / Ab major, 2016-08-12, Trance,  0  40
67 138 bpm, 8A / A minor, 2016-08-05, Trance,  5  18
68 140 bpm, 8A / A minor, 2016-07-22, Trance,  2  36
69 138 bpm, 7A / D minor, 2016-07-22, Trance,  0  36
70 138 bpm, 4A / F minor, 2016-07-15, Trance,  0  30
71 138 bpm, 4A / F minor, 2016-07-08, Trance,  0  30
72 138 bpm, 7A / D minor, 2016-07-01, Trance,  0  15
73 138 bpm, 7A / D minor, 2016-06-24, Trance,  0  100
74 138 bpm, 2B / F# major, 2016-06-24, Trance,  0  100
75 138 bpm, 8A / A minor, 2016-06-24, Trance,  0  100
76 138 bpm, 7A / D minor, 2016-06-17, Trance,  13  1
77 138 bpm, 4A / F minor, 2016-06-10, Trance,  0  25
78 138 bpm, 2B / F# major, 2016-06-10, Trance,  0  48
79 138 bpm, 3A / Bb minor, 2016-06-03, Trance,  0  15
80 138 bpm, 3A / Bb minor, 2016-05-27, Trance,  2  20
81 138 bpm, 2B / F# major, 2016-05-20, Trance,  1  10
82 138 bpm, 4A / F minor, 2016-05-13, Trance,  0  30
83 138 bpm, 2B / F# major, 2016-05-13, Trance,  0  40
84 138 bpm, 8A / A minor, 2016-04-29, Trance,  2  15
85 138 bpm, 9A / E minor, 2016-04-29, Trance,  0  20
86 138 bpm, 3A / Bb minor, 2016-04-29, Trance,  8  1
87 138 bpm, 4A / F minor, 2016-04-25, Trance,  4  2
88 138 bpm, 4A / F minor, 2016-04-25, Trance,  0  11
89 140 bpm, 12A / Db minor, 2016-04-18, Trance,  0  12
90 140 bpm, 11A / F# minor, 2016-04-11, Trance,  0  1
91 138 bpm, 8A / A minor, 2016-04-08, Trance,  0  50
92 138 bpm, 2B / F# major, 2016-04-01, Trance,  5  15
93 138 bpm, 5A / C minor, 2016-03-28, Trance,  5  2
94 138 bpm, 9A / E minor, 2016-03-25, Trance,  0  20
95 138 bpm, 2B / F# major, 2016-03-25, Trance,  23  1
96 138 bpm, 2A / Eb minor, 2016-03-25, Trance,  0  25
97 140 bpm, 8A / A minor, 2016-03-18, Trance,  0  21
98 138 bpm, 9A / E minor, 2016-03-18, Trance,  0  20
99 138 bpm, 8A / A minor, 2016-03-18, Trance,  15  1
100 138 bpm, 9A / E minor, 2016-03-04, Trance,  1  15
Please wait...